FW1924 Weather Reports


Display with metric or nautical units.
time (UTC)temp
F
wind
direction
speed
MPH
gust
MPH
rain 1hr
in
rain 24hr
in
rain mn
in
humidity
%
barometer
mb
20260505041537 59 188 9.0 16.0 0.00 0.00 0.00 45 998.9
20260505040037 59 176 9.0 17.0 0.00 0.00 0.00 46 998.7
20260505034528 59 192 9.0 16.0 0.00 0.00 0.00 46 998.6
20260505033020 60 223 12.0 20.0 0.00 0.00 0.00 46 998.5
20260505031524 61 183 9.0 17.0 0.00 0.00 0.00 45 998.3
20260505030012 61 189 9.0 16.0 0.00 0.00 0.00 44 998.2
20260505024504 62 155 12.0 18.0 0.00 0.00 0.00 42 998.0
20260505023101 62 185 7.0 20.0 0.00 0.00 0.00 41 998.0
20260505021549 63 169 13.0 25.0 0.00 0.00 0.00 41 997.4
20260505020049 63 150 10.0 20.0 0.00 0.00 0.00 40 997.4
20260505014538 64 188 1.0 5.0 0.00 0.00 0.00 38 997.4
20260505013037 64 130 1.0 3.0 0.00 0.00 0.00 39 997.6
20260505011540 65 55 0.0 1.0 0.00 0.00 0.00 40 997.8
20260505010040 65 55 0.0 2.0 0.00 0.00 0.00 41 998.0
20260505004519 65 53 2.0 6.0 0.00 0.00 0.00 39 998.2
20260505003011 65 53 2.0 13.0 0.00 0.00 0.00 38 998.3
20260505001503 65 48 10.0 16.0 0.00 0.00 0.00 37 998.3
20260505000056 66 40 6.0 11.0 0.00 0.00 0.00 36 998.2
20260504234547 68 52 6.0 12.0 0.00 0.00 0.00 35 998.3
20260504233040 69 74 2.0 10.0 0.00 0.00 0.00 33 998.5
20260504231544 69 52 4.0 13.0 0.00 0.00 0.00 34 998.2
20260504230040 68 95 6.0 11.0 0.00 0.00 0.00 35 998.2
20260504224524 69 67 6.0 14.0 0.00 0.00 0.00 34 998.3
20260504223016 68 227 4.0 8.0 0.00 0.00 0.00 31 998.2
20260504221519 67 205 5.0 14.0 0.00 0.00 0.00 31 998.2
20260504220007 67 229 5.0 15.0 0.00 0.00 0.00 32 998.1
20260504214505 66 225 6.0 16.0 0.00 0.00 0.00 32 998.3
20260504213005 67 210 5.0 21.0 0.00 0.00 0.00 32 998.4
20260504211604 68 236 10.0 24.0 0.00 0.00 0.00 30 998.4
20260504210055 69 225 7.0 13.0 0.00 0.00 0.00 26 998.6
20260504204550 70 200 5.0 12.0 0.00 0.00 0.00 25 998.6
20260504203050 71 182 9.0 16.0 0.00 0.00 0.00 28 998.6
20260504201544 73 211 2.0 7.0 0.00 0.00 0.00 29 998.7
20260504200037 73 175 2.0 7.0 0.00 0.00 0.00 29 998.8
20260504194531 75 231 1.0 7.0 0.00 0.00 0.00 27 998.9
20260504193023 76 171 4.0 9.0 0.00 0.00 0.00 26 999.1
20260504191531 75 178 3.0 12.0 0.00 0.00 0.00 29 998.9
20260504190008 73 235 4.0 15.0 0.00 0.00 0.00 29 999.2
20260504184600 73 107 1.0 7.0 0.00 0.00 0.00 34 999.7
20260504183051 73 160 2.0 14.0 0.00 0.00 0.00 30 999.7
20260504181546 74 185 8.0 15.0 0.00 0.00 0.00 29 1000.0
20260504180042 75 155 9.0 17.0 0.00 0.00 0.00 30 999.8
20260504174546 73 139 9.0 13.0 0.00 0.00 0.00 30 999.8
20260504173035 73 123 9.0 16.0 0.00 0.00 0.00 32 1000.1
20260504171533 72 128 12.0 15.0 0.00 0.00 0.00 33 1000.3
20260504081539 54 159 8.0 11.0 0.00 0.00 0.00 35 1001.2